Location: ?
(35.3436°N, 139.3168°E)
Time: 09:02:53
(UTC+00:00)

X-37B - Pass Details

Date: 18 May 2021
Orbit: 386 x 389 km, 45.0° (Epoch: 10 June)

Event Time Altitude Azimuth Distance (km) Brightness Sun altitude
Rises 10:21:43 0° 293° (WNW) 2,271 6.7 -7.9°
Reaches altitude 10° 10:23:56 10° 282° (WNW) 1,413 4.8 -8.3°
Maximum altitude 10:26:47 30° 219° (SW) 721 2.0 -8.8°
Drops below altitude 10° 10:29:36 10° 155° (SSE) 1,405 2.9 -9.3°
Enters shadow 10:29:40 10° 155° (SSE) 1,426 2.9 -9.3°
